User: anonymous   Login
Location: Newark
(3.0500°N, 36.0167°E)
Time: 04:01:01
(UTC+00:00)
Language:

Transit 2A - Orbit

View from above orbital plane
View from above orbital plane
View from above satellite
View from above satellite

Ground track
Ground track

The orbit data is extracted from the following two-line orbital elements,

1    45U 60007A   19232.86824726 -.00000087  00000-0  51231-5 0  9995
2    45  66.6940  95.6204 0255392 176.8541 183.4243 14.33646341 79473
Epoch (UTC): 20 August 2019 20:50:16
Eccentricity: 0.0255392
inclination: 66.6940°
perigee height: 597 km
apogee height: 962 km
right ascension of ascending node: 95.6204°
argument of perigee: 176.8541°
revolutions per day: 14.33646341
mean anomaly at epoch: 183.4243°
orbit number at epoch: 7947

The dashed part of the orbit path shows where the satellite is in the earth's shadow,  

DLR